Погода в Прадхо-Бее

США     70°18′27″N   148°36′37″W
темп.,
°C
ветер,
м/с
пор.,
м/с
влажн.,
%
обл.,
%
осадки,
мм/ч
давл.,
гПа
погр.,
м
16 июня, ср
ср1601:00+6ссв347493 0.0 1016149
04:00+6всв3474100 0.0 1017147
07:00+6в457329 0.0 1018175
10:00+10в446356 0.0 1018352
13:00+11всв556216 0.0 1019420
16:00+10всв676153 0.0 1019383
19:00+9всв6864100 0.0 1019313
22:00+6всв61069100 0.0 1020230
17 июня, чт
чт1701:00+5всв61072100 0.0 1019201
04:00+5всв61174100 0.0 1019219
07:00+5всв71273100 0.0 1019271
10:00+7всв71164100 0.0 1019333
13:00+7всв7116295 0.0 1018350
16:00+7всв8106594 0.0 1017344
19:00+5всв687129 0.0 1017303
22:00+4всв5678100 0.0 1017231
18 июня, пт
пт1801:00+2всв458497 0.0 1017177
04:00+2св348455 0.0 1017126
07:00+4св3379100 0.0 1017166
10:00+5ссв3373100 0.0 1017200
13:00+7ссв4368100 0.0 1017235
16:00+7св446622 0.0 1016233
19:00+6св447121 0.0 1016202
22:00+4св457633 0.0 1017165
19 июня, сб
сб1901:00+3ссв34805 0.0 1017117
04:00+3ссв118112 0.0 101883
07:00+5ссз227423 0.0 1018141
10:00+8ссз226554 0.0 1017223
13:00+8ссв326499 0.0 1017211
16:00+10ссв325976 0.0 1016235
19:00+9св3363100 0.0 1015199
22:00+6всв4473100 0.0 1015143
20 июня, вс
вс2001:00+4всв467798 0.0 1014125
04:00+4всв4578100 0.0 1013125
07:00+5св347592 0.0 1012141
10:00+8св336778 0.0 1011197
13:00+10св446227 0.0 1011233
16:00+10св556120 0.0 1010223
19:00+8всв676373 0.0 1010214
22:00+6всв67666 0.0 1010188